CZ-3B R/B

基本信息
目录编号:
25405
目录名称:
CZ-3B R/B
国际标识:
1998-044B
轨道中心:
EARTH
物体状态:
在轨
发射日期:
1998-07-18 UTC
国别:
中国 (CN)
轨道信息
数据来源: 国际轨道数据
星历时间: 2026-07-12T23:09:34+0800
半长轴: 24544.589km
偏心率: 0.7167769
轨道倾角: 19.098°
近地点辐角: 99.850°
升交点赤经: 348.111°
平近点角: 340.838°
近地点: 573.457km
远地点: 35759.447km
周期: 637.813分钟
每日圈数: 2.257715
详细信息
发射场:
XSC
轨道高度:
LEO
数据来源:
AOE Integration Group
参考系:
TEME
时间系统:
UTC
历元类型:
SGP4
2D轨道图
3D轨道图
轨道高度分析图
轨道倾角分析图
轨道综合分析图
查看轨道综合分析图